Location: Newark
(44.6394°N, 22.2943°E)
Time: 08:01:50
(UTC+00:00)

XW-2F - Visible Passes

Search period start: 03 December 2023 00:00
Search period end: 13 December 2023 00:00
Orbit: 399 x 405 km, 97.4° (Epoch: 02 December)

Date Brightness Start Highest point End Pass type
(mag) Time Alt. Az. Time Alt. Az. Time Alt. Az.
05 Dec ? 05:15:01 10° NE 05:17:43 27° E 05:20:25 10° SSE visible
07 Dec ? 05:07:06 10° NE 05:09:32 21° E 05:11:57 10° SSE visible
09 Dec ? 04:58:50 10° NE 05:00:51 16° E 05:02:51 10° SE visible
11 Dec ? 04:50:21 10° ENE 04:51:40 12° E 04:52:58 10° ESE visible
